| time (UTC) | temp F | wind direction | speed MPH | gust MPH | rain 1hr in | rain 24hr in | rain mn in | humidity % | barometer mb |
| 20260509010005 | 58 | 206 | 0.0 | 3.0 | 0.00 | 0.01 | 0.00 | 63 | 1013.7 |
| 20260509005504 | 58 | 206 | 1.0 | 5.0 | 0.00 | 0.01 | 0.00 | 62 | 1013.6 |
| 20260509004504 | 59 | 239 | 1.0 | 6.0 | 0.00 | 0.01 | 0.00 | 61 | 1013.6 |
| 20260509004004 | 59 | 222 | 0.0 | 6.0 | 0.00 | 0.01 | 0.00 | 60 | 1013.5 |
| 20260509002504 | 60 | 198 | 0.0 | 1.0 | 0.00 | 0.01 | 0.00 | 54 | 1013.5 |
| 20260509002005 | 61 | 157 | 0.0 | 1.0 | 0.00 | 0.01 | 0.00 | 51 | 1013.5 |
| 20260509001504 | 61 | 161 | 0.0 | 2.0 | 0.00 | 0.01 | 0.00 | 50 | 1013.5 |
| 20260509000504 | 62 | 170 | 0.0 | 2.0 | 0.00 | 0.01 | 0.00 | 50 | 1013.3 |
| 20260508235504 | 62 | 225 | 1.0 | 5.0 | 0.00 | 0.01 | 0.00 | 49 | 1013.3 |
| 20260508235004 | 62 | 228 | 1.0 | 8.0 | 0.00 | 0.01 | 0.00 | 48 | 1013.2 |
| 20260508234504 | 63 | 117 | 1.0 | 8.0 | 0.00 | 0.01 | 0.00 | 48 | 1013.1 |
| 20260508234005 | 63 | 172 | 1.0 | 7.0 | 0.00 | 0.01 | 0.00 | 47 | 1013.2 |
| 20260508233004 | 64 | 227 | 2.0 | 7.0 | 0.00 | 0.01 | 0.00 | 47 | 1013.0 |
| 20260508232004 | 64 | 152 | 2.0 | 7.0 | 0.00 | 0.01 | 0.00 | 47 | 1012.9 |
| 20260508231505 | 64 | 224 | 2.0 | 6.0 | 0.00 | 0.01 | 0.00 | 47 | 1012.8 |
| 20260508231004 | 64 | 171 | 2.0 | 7.0 | 0.00 | 0.01 | 0.00 | 46 | 1012.9 |
| 20260508230504 | 64 | 291 | 1.0 | 10.0 | 0.00 | 0.01 | 0.00 | 47 | 1012.8 |
| 20260508230004 | 65 | 221 | 1.0 | 10.0 | 0.00 | 0.01 | 0.00 | 47 | 1012.9 |
| 20260508225505 | 65 | 175 | 2.0 | 10.0 | 0.00 | 0.01 | 0.00 | 45 | 1012.9 |
| 20260508225005 | 65 | 123 | 1.0 | 8.0 | 0.00 | 0.01 | 0.00 | 46 | 1012.9 |
| 20260508224504 | 65 | 222 | 2.0 | 8.0 | 0.00 | 0.01 | 0.00 | 45 | 1012.9 |
| 20260508224004 | 65 | 215 | 2.0 | 10.0 | 0.00 | 0.01 | 0.00 | 47 | 1012.9 |
| 20260508223504 | 65 | 204 | 2.0 | 10.0 | 0.00 | 0.01 | 0.00 | 46 | 1012.8 |
| 20260508223004 | 66 | 164 | 2.0 | 8.0 | 0.00 | 0.01 | 0.00 | 45 | 1012.8 |
| 20260508222504 | 66 | 78 | 1.0 | 10.0 | 0.00 | 0.01 | 0.00 | 44 | 1012.8 |
| 20260508221505 | 67 | 226 | 2.0 | 9.0 | 0.00 | 0.01 | 0.00 | 43 | 1012.8 |
| 20260508220504 | 68 | 128 | 3.0 | 8.0 | 0.00 | 0.01 | 0.00 | 42 | 1012.7 |
| 20260508215503 | 68 | 211 | 2.0 | 7.0 | 0.00 | 0.01 | 0.00 | 43 | 1012.6 |
| 20260508215004 | 68 | 179 | 2.0 | 7.0 | 0.00 | 0.01 | 0.00 | 42 | 1012.5 |
| 20260508214504 | 68 | 74 | 0.0 | 7.0 | 0.00 | 0.01 | 0.00 | 42 | 1012.6 |
| 20260508213505 | 68 | 102 | 2.0 | 6.0 | 0.00 | 0.01 | 0.00 | 43 | 1012.6 |
| 20260508212504 | 68 | 98 | 1.0 | 8.0 | 0.00 | 0.01 | 0.00 | 43 | 1012.7 |
| 20260508212004 | 68 | 226 | 4.0 | 10.0 | 0.00 | 0.01 | 0.00 | 41 | 1012.8 |
| 20260508211504 | 68 | 323 | 3.0 | 10.0 | 0.00 | 0.02 | 0.00 | 42 | 1012.8 |
| 20260508211004 | 68 | 303 | 2.0 | 10.0 | 0.00 | 0.02 | 0.00 | 41 | 1012.8 |
| 20260508210505 | 68 | 338 | 3.0 | 10.0 | 0.00 | 0.02 | 0.00 | 41 | 1012.8 |
| 20260508210004 | 69 | 146 | 3.0 | 10.0 | 0.00 | 0.03 | 0.00 | 41 | 1012.7 |
| 20260508205504 | 69 | 82 | 1.0 | 7.0 | 0.00 | 0.03 | 0.00 | 42 | 1012.6 |
| 20260508205005 | 68 | 208 | 3.0 | 8.0 | 0.00 | 0.04 | 0.00 | 41 | 1012.7 |
| 20260508204504 | 69 | 137 | 3.0 | 8.0 | 0.00 | 0.04 | 0.00 | 41 | 1012.9 |
| 20260508204004 | 69 | 328 | 1.0 | 6.0 | 0.00 | 0.05 | 0.00 | 42 | 1013.0 |
| 20260508203504 | 68 | 41 | 2.0 | 12.0 | 0.00 | 0.05 | 0.00 | 42 | 1013.0 |
| 20260508203004 | 69 | 81 | 3.0 | 12.0 | 0.00 | 0.05 | 0.00 | 42 | 1013.0 |
| 20260508202504 | 68 | 278 | 3.0 | 9.0 | 0.00 | 0.05 | 0.00 | 41 | 1013.0 |
| 20260508202004 | 69 | 228 | 2.0 | 10.0 | 0.00 | 0.05 | 0.00 | 42 | 1013.1 |
| 20260508201504 | 69 | 156 | 3.0 | 10.0 | 0.00 | 0.05 | 0.00 | 41 | 1013.0 |
| 20260508201004 | 69 | 199 | 3.0 | 14.0 | 0.00 | 0.06 | 0.00 | 41 | 1013.1 |
| 20260508200004 | 69 | 344 | 2.0 | 5.0 | 0.00 | 0.07 | 0.00 | 41 | 1013.1 |
| 20260508195504 | 69 | 344 | 2.0 | 6.0 | 0.00 | 0.07 | 0.00 | 41 | 1013.0 |
| 20260508195004 | 69 | 271 | 2.0 | 7.0 | 0.00 | 0.07 | 0.00 | 40 | 1013.1 |
| 20260508194504 | 70 | 262 | 2.0 | 8.0 | 0.00 | 0.07 | 0.00 | 41 | 1013.0 |
| 20260508193504 | 69 | 170 | 2.0 | 10.0 | 0.00 | 0.07 | 0.00 | 42 | 1013.1 |
| 20260508193004 | 69 | 170 | 3.0 | 8.0 | 0.00 | 0.08 | 0.00 | 41 | 1013.2 |
| 20260508192004 | 69 | 111 | 1.0 | 12.0 | 0.00 | 0.08 | 0.00 | 37 | 1013.3 |
| 20260508191004 | 69 | 222 | 2.0 | 10.0 | 0.00 | 0.08 | 0.00 | 39 | 1013.3 |
| 20260508190504 | 69 | 33 | 2.0 | 9.0 | 0.00 | 0.08 | 0.00 | 38 | 1013.5 |
| 20260508190005 | 69 | 1 | 3.0 | 9.0 | 0.00 | 0.08 | 0.00 | 35 | 1013.5 |
| 20260508185504 | 70 | 1 | 2.0 | 9.0 | 0.00 | 0.09 | 0.00 | 36 | 1013.3 |
| 20260508185004 | 70 | 285 | 1.0 | 8.0 | 0.00 | 0.09 | 0.00 | 36 | 1013.4 |
| 20260508184504 | 69 | 267 | 2.0 | 8.0 | 0.00 | 0.09 | 0.00 | 36 | 1013.5 |
| 20260508184004 | 69 | 132 | 1.0 | 7.0 | 0.00 | 0.09 | 0.00 | 36 | 1013.7 |
| 20260508183505 | 69 | 306 | 2.0 | 8.0 | 0.00 | 0.09 | 0.00 | 36 | 1013.7 |
| 20260508183005 | 69 | 43 | 2.0 | 8.0 | 0.00 | 0.09 | 0.00 | 37 | 1013.9 |
| 20260508182504 | 69 | 228 | 3.0 | 8.0 | 0.00 | 0.09 | 0.00 | 36 | 1013.9 |
| 20260508181504 | 69 | 292 | 2.0 | 9.0 | 0.00 | 0.09 | 0.00 | 37 | 1014.0 |
| 20260508181005 | 69 | 138 | 2.0 | 7.0 | 0.00 | 0.09 | 0.00 | 36 | 1013.9 |
| 20260508180504 | 69 | 213 | 3.0 | 13.0 | 0.00 | 0.09 | 0.00 | 39 | 1014.0 |
| 20260508180003 | 69 | 162 | 2.0 | 13.0 | 0.00 | 0.09 | 0.00 | 40 | 1014.0 |
| 20260508175504 | 69 | 132 | 2.0 | 6.0 | 0.00 | 0.09 | 0.00 | 37 | 1014.1 |
| 20260508175004 | 68 | 148 | 1.0 | 8.0 | 0.00 | 0.09 | 0.00 | 38 | 1014.1 |
| 20260508174504 | 68 | 162 | 2.0 | 8.0 | 0.00 | 0.09 | 0.00 | 37 | 1014.2 |
| 20260508174004 | 68 | 305 | 1.0 | 12.0 | 0.00 | 0.09 | 0.00 | 40 | 1014.2 |
| 20260508173505 | 68 | 315 | 3.0 | 12.0 | 0.00 | 0.09 | 0.00 | 37 | 1014.3 |
| 20260508172504 | 68 | 99 | 2.0 | 9.0 | 0.00 | 0.09 | 0.00 | 38 | 1014.3 |
| 20260508172004 | 68 | 242 | 2.0 | 9.0 | 0.00 | 0.09 | 0.00 | 39 | 1014.3 |
| 20260508171504 | 68 | 299 | 2.0 | 6.0 | 0.00 | 0.09 | 0.00 | 38 | 1014.3 |
| 20260508171003 | 68 | 339 | 1.0 | 6.0 | 0.00 | 0.09 | 0.00 | 40 | 1014.4 |
| 20260508170503 | 67 | 342 | 2.0 | 10.0 | 0.00 | 0.09 | 0.00 | 41 | 1014.4 |
| 20260508170004 | 67 | 224 | 2.0 | 10.0 | 0.00 | 0.09 | 0.00 | 40 | 1014.5 |
| 20260508165503 | 67 | 190 | 3.0 | 6.0 | 0.00 | 0.09 | 0.00 | 39 | 1014.4 |
| 20260508164504 | 67 | 0 | 1.0 | 5.0 | 0.00 | 0.09 | 0.00 | 41 | 1014.6 |
| 20260508163504 | 66 | 186 | 0.0 | 7.0 | 0.00 | 0.09 | 0.00 | 42 | 1014.7 |
| 20260508163003 | 66 | 335 | 2.0 | 7.0 | 0.00 | 0.09 | 0.00 | 43 | 1014.8 |
| 20260508162005 | 66 | 352 | 2.0 | 8.0 | 0.00 | 0.09 | 0.00 | 41 | 1014.9 |
| 20260508161504 | 66 | 311 | 2.0 | 8.0 | 0.00 | 0.09 | 0.00 | 42 | 1014.9 |
| 20260508160504 | 66 | 74 | 1.0 | 3.0 | 0.00 | 0.09 | 0.00 | 42 | 1015.1 |
| 20260508160004 | 65 | 276 | 2.0 | 6.0 | 0.00 | 0.09 | 0.00 | 42 | 1015.0 |
| 20260508154004 | 66 | 151 | 1.0 | 5.0 | 0.00 | 0.09 | 0.09 | 44 | 1015.1 |
| 20260508153504 | 65 | 264 | 1.0 | 3.0 | 0.00 | 0.09 | 0.09 | 44 | 1015.1 |
| 20260508153004 | 65 | 215 | 0.0 | 5.0 | 0.00 | 0.09 | 0.09 | 44 | 1015.2 |
| 20260508152504 | 64 | 293 | 1.0 | 6.0 | 0.00 | 0.09 | 0.09 | 45 | 1015.2 |
| 20260508152004 | 63 | 267 | 1.0 | 6.0 | 0.00 | 0.09 | 0.09 | 45 | 1015.1 |
| 20260508151504 | 63 | 350 | 2.0 | 6.0 | 0.00 | 0.09 | 0.09 | 43 | 1015.2 |
| 20260508151004 | 63 | 45 | 1.0 | 7.0 | 0.00 | 0.09 | 0.09 | 48 | 1015.3 |
| 20260508150504 | 63 | 299 | 2.0 | 7.0 | 0.00 | 0.09 | 0.09 | 45 | 1015.4 |
| 20260508145504 | 61 | 180 | 1.0 | 6.0 | 0.00 | 0.09 | 0.09 | 48 | 1015.6 |
| 20260508145004 | 61 | 10 | 3.0 | 6.0 | 0.00 | 0.09 | 0.09 | 45 | 1015.7 |
| 20260508144505 | 62 | 28 | 2.0 | 3.0 | 0.00 | 0.09 | 0.09 | 52 | 1015.7 |
| 20260508144004 | 61 | 34 | 0.0 | 3.0 | 0.00 | 0.09 | 0.09 | 49 | 1015.7 |
| 20260508143504 | 61 | 330 | 1.0 | 3.0 | 0.00 | 0.09 | 0.09 | 48 | 1015.7 |
| 20260508143005 | 60 | 27 | 1.0 | 7.0 | 0.00 | 0.09 | 0.09 | 50 | 1015.8 |
| 20260508142505 | 60 | 53 | 2.0 | 7.0 | 0.00 | 0.09 | 0.09 | 50 | 1015.7 |
| 20260508142004 | 60 | 15 | 2.0 | 6.0 | 0.00 | 0.09 | 0.09 | 50 | 1015.8 |
| 20260508141504 | 59 | 12 | 2.0 | 6.0 | 0.00 | 0.09 | 0.09 | 48 | 1015.9 |
| 20260508141005 | 59 | 311 | 1.0 | 6.0 | 0.00 | 0.09 | 0.09 | 51 | 1015.8 |
| 20260508140504 | 59 | 41 | 2.0 | 5.0 | 0.00 | 0.09 | 0.09 | 51 | 1015.7 |
| 20260508140003 | 59 | 354 | 2.0 | 7.0 | 0.00 | 0.09 | 0.09 | 52 | 1015.7 |
| 20260508135504 | 59 | 22 | 2.0 | 7.0 | 0.00 | 0.09 | 0.09 | 52 | 1015.7 |
| 20260508135004 | 58 | 36 | 2.0 | 5.0 | 0.00 | 0.09 | 0.09 | 56 | 1015.6 |
| 20260508133504 | 58 | 330 | 1.0 | 6.0 | 0.00 | 0.09 | 0.09 | 58 | 1015.8 |
| 20260508133004 | 58 | 21 | 2.0 | 7.0 | 0.00 | 0.09 | 0.09 | 58 | 1015.8 |
| 20260508132004 | 57 | 3 | 2.0 | 6.0 | 0.00 | 0.09 | 0.09 | 58 | 1015.7 |
| 20260508131504 | 57 | 356 | 2.0 | 6.0 | 0.00 | 0.09 | 0.09 | 60 | 1015.8 |
| 20260508131004 | 56 | 347 | 3.0 | 7.0 | 0.00 | 0.09 | 0.09 | 61 | 1015.8 |
| 20260508130504 | 56 | 43 | 2.0 | 7.0 | 0.00 | 0.09 | 0.09 | 62 | 1015.9 |
| 20260508130004 | 56 | 340 | 2.0 | 8.0 | 0.00 | 0.09 | 0.09 | 63 | 1015.8 |
| 20260508125504 | 56 | 19 | 3.0 | 8.0 | 0.00 | 0.09 | 0.09 | 67 | 1015.6 |
| 20260508125004 | 56 | 37 | 2.0 | 8.0 | 0.00 | 0.09 | 0.09 | 69 | 1015.7 |
| 20260508124504 | 55 | 350 | 4.0 | 6.0 | 0.00 | 0.09 | 0.09 | 66 | 1015.7 |
| 20260508124004 | 55 | 11 | 3.0 | 7.0 | 0.00 | 0.09 | 0.09 | 70 | 1015.7 |
| 20260508123504 | 55 | 22 | 2.0 | 7.0 | 0.00 | 0.09 | 0.09 | 72 | 1015.7 |
| 20260508123005 | 54 | 356 | 3.0 | 6.0 | 0.00 | 0.09 | 0.09 | 73 | 1015.7 |
| 20260508122503 | 54 | 23 | 2.0 | 5.0 | 0.00 | 0.09 | 0.09 | 75 | 1015.6 |
| 20260508122003 | 53 | 3 | 1.0 | 5.0 | 0.00 | 0.09 | 0.09 | 76 | 1015.3 |
| 20260508121505 | 53 | 357 | 1.0 | 6.0 | 0.00 | 0.09 | 0.09 | 77 | 1015.3 |
| 20260508121004 | 53 | 352 | 2.0 | 6.0 | 0.00 | 0.09 | 0.09 | 78 | 1015.4 |
| 20260508120505 | 53 | 351 | 2.0 | 6.0 | 0.00 | 0.09 | 0.09 | 79 | 1015.5 |
| 20260508115003 | 52 | 9 | 0.0 | 3.0 | 0.00 | 0.09 | 0.09 | 83 | 1015.2 |
| 20260508114004 | 52 | 294 | 0.0 | 1.0 | 0.00 | 0.09 | 0.09 | 87 | 1015.2 |
| 20260508113504 | 52 | 238 | 0.0 | 1.0 | 0.00 | 0.09 | 0.09 | 91 | 1015.2 |
| 20260508113006 | 50 | 237 | 0.0 | 1.0 | 0.00 | 0.09 | 0.09 | 92 | 1015.1 |
| 20260508112505 | 50 | 238 | 0.0 | 1.0 | 0.00 | 0.09 | 0.09 | 93 | 1015.0 |
| 20260508111503 | 47 | 357 | 0.0 | 1.0 | 0.00 | 0.09 | 0.09 | 94 | 1014.8 |
| 20260508111004 | 47 | 51 | 0.0 | 0.0 | 0.00 | 0.09 | 0.09 | 94 | 1014.7 |
| 20260508110004 | 46 | 51 | 0.0 | 0.0 | 0.00 | 0.09 | 0.09 | 94 | 1014.6 |
| 20260508105505 | 46 | 51 | 0.0 | 0.0 | 0.00 | 0.09 | 0.09 | 94 | 1014.4 |
| 20260508105004 | 46 | 51 | 0.0 | 1.0 | 0.00 | 0.09 | 0.09 | 93 | 1014.4 |
| 20260508104504 | 47 | 51 | 0.0 | 2.0 | 0.00 | 0.09 | 0.09 | 93 | 1014.2 |
| 20260508104004 | 47 | 319 | 0.0 | 2.0 | 0.00 | 0.09 | 0.09 | 93 | 1014.1 |
| 20260508103505 | 46 | 359 | 0.0 | 1.0 | 0.00 | 0.09 | 0.09 | 93 | 1014.1 |
| 20260508103004 | 47 | 359 | 0.0 | 3.0 | 0.00 | 0.09 | 0.09 | 93 | 1014.1 |
| 20260508102503 | 47 | 9 | 0.0 | 3.0 | 0.00 | 0.09 | 0.09 | 93 | 1014.1 |
| 20260508102004 | 47 | 332 | 0.0 | 3.0 | 0.00 | 0.09 | 0.09 | 93 | 1014.0 |
| 20260508101504 | 47 | 345 | 1.0 | 3.0 | 0.00 | 0.09 | 0.09 | 93 | 1014.0 |
| 20260508101005 | 47 | 4 | 1.0 | 3.0 | 0.00 | 0.09 | 0.09 | 94 | 1013.9 |
| 20260508100503 | 47 | 10 | 1.0 | 3.0 | 0.00 | 0.09 | 0.09 | 95 | 1013.8 |
| 20260508095504 | 47 | 319 | 0.0 | 2.0 | 0.00 | 0.09 | 0.09 | 95 | 1013.7 |
| 20260508095004 | 47 | 324 | 0.0 | 2.0 | 0.00 | 0.09 | 0.09 | 95 | 1013.6 |
| 20260508093004 | 48 | 22 | 0.0 | 2.0 | 0.00 | 0.09 | 0.09 | 95 | 1013.4 |
| 20260508092503 | 48 | 355 | 0.0 | 2.0 | 0.00 | 0.09 | 0.09 | 96 | 1013.3 |
| 20260508092006 | 48 | 4 | 0.0 | 3.0 | 0.00 | 0.09 | 0.09 | 96 | 1013.3 |
| 20260508091503 | 48 | 6 | 0.0 | 3.0 | 0.00 | 0.09 | 0.09 | 96 | 1013.2 |
| 20260508091003 | 48 | 0 | 0.0 | 3.0 | 0.00 | 0.09 | 0.09 | 96 | 1013.2 |
| 20260508090504 | 48 | 14 | 1.0 | 3.0 | 0.00 | 0.09 | 0.09 | 97 | 1013.2 |
| 20260508090004 | 48 | 238 | 0.0 | 6.0 | 0.00 | 0.09 | 0.09 | 97 | 1013.1 |
| 20260508085504 | 48 | 169 | 0.0 | 6.0 | 0.00 | 0.09 | 0.09 | 97 | 1013.1 |
| 20260508085004 | 48 | 1 | 1.0 | 3.0 | 0.00 | 0.09 | 0.09 | 98 | 1012.9 |
| 20260508084504 | 48 | 30 | 0.0 | 3.0 | 0.00 | 0.09 | 0.09 | 98 | 1012.8 |
| 20260508084003 | 47 | 20 | 0.0 | 3.0 | 0.00 | 0.09 | 0.09 | 98 | 1012.8 |
| 20260508083504 | 47 | 46 | 0.0 | 3.0 | 0.00 | 0.09 | 0.09 | 98 | 1012.8 |
| 20260508083004 | 47 | 2 | 0.0 | 2.0 | 0.00 | 0.09 | 0.09 | 98 | 1012.7 |
| 20260508082504 | 47 | 52 | 0.0 | 1.0 | 0.00 | 0.09 | 0.09 | 98 | 1012.6 |
| 20260508082004 | 47 | 231 | 0.0 | 2.0 | 0.00 | 0.09 | 0.09 | 98 | 1012.6 |
| 20260508081504 | 47 | 253 | 0.0 | 2.0 | 0.00 | 0.09 | 0.09 | 98 | 1012.6 |
| 20260508081004 | 47 | 28 | 0.0 | 2.0 | 0.00 | 0.09 | 0.09 | 97 | 1012.5 |
| 20260508080004 | 47 | 273 | 0.0 | 2.0 | 0.00 | 0.09 | 0.09 | 97 | 1012.4 |
| 20260508075504 | 47 | 59 | 0.0 | 2.0 | 0.00 | 0.09 | 0.09 | 98 | 1012.3 |
| 20260508074504 | 47 | 151 | 0.0 | 5.0 | 0.00 | 0.09 | 0.09 | 98 | 1012.1 |
| 20260508074005 | 47 | 16 | 1.0 | 5.0 | 0.00 | 0.09 | 0.09 | 98 | 1012.0 |
| 20260508073505 | 47 | 13 | 0.0 | 3.0 | 0.00 | 0.09 | 0.09 | 98 | 1011.9 |
| 20260508072504 | 47 | 316 | 0.0 | 2.0 | 0.00 | 0.09 | 0.09 | 98 | 1011.7 |
| 20260508072005 | 47 | 192 | 0.0 | 2.0 | 0.00 | 0.09 | 0.09 | 98 | 1011.6 |
| 20260508071504 | 47 | 192 | 0.0 | 1.0 | 0.00 | 0.09 | 0.09 | 98 | 1011.5 |
| 20260508071004 | 47 | 125 | 0.0 | 2.0 | 0.00 | 0.09 | 0.09 | 97 | 1011.5 |
| 20260508070504 | 47 | 127 | 1.0 | 2.0 | 0.00 | 0.09 | 0.09 | 98 | 1011.4 |
| 20260508070004 | 47 | 133 | 0.0 | 2.0 | 0.00 | 0.11 | 0.09 | 98 | 1011.3 |
| 20260508065504 | 47 | 135 | 0.0 | 1.0 | 0.00 | 0.12 | 0.09 | 98 | 1011.2 |
| 20260508064505 | 47 | 151 | 0.0 | 1.0 | 0.00 | 0.12 | 0.09 | 98 | 1011.3 |
| 20260508064004 | 46 | 97 | 0.0 | 1.0 | 0.00 | 0.13 | 0.09 | 98 | 1011.3 |
| 20260508063504 | 46 | 81 | 0.0 | 1.0 | 0.00 | 0.13 | 0.09 | 98 | 1011.5 |
| 20260508063005 | 46 | 77 | 0.0 | 1.0 | 0.00 | 0.13 | 0.09 | 98 | 1011.4 |
| 20260508062005 | 46 | 136 | 0.0 | 1.0 | 0.00 | 0.14 | 0.09 | 98 | 1011.3 |
| 20260508061004 | 46 | 252 | 0.0 | 1.0 | 0.00 | 0.14 | 0.09 | 98 | 1011.3 |
| 20260508060504 | 46 | 132 | 0.0 | 1.0 | 0.00 | 0.14 | 0.09 | 98 | 1011.2 |
| 20260508060005 | 46 | 264 | 0.0 | 1.0 | 0.00 | 0.14 | 0.09 | 97 | 1011.3 |
| 20260508055504 | 46 | 145 | 0.0 | 0.0 | 0.00 | 0.14 | 0.09 | 97 | 1011.2 |
| 20260508055004 | 46 | 146 | 0.0 | 1.0 | 0.00 | 0.14 | 0.09 | 97 | 1011.1 |
| 20260508054503 | 46 | 148 | 0.0 | 1.0 | 0.00 | 0.14 | 0.09 | 97 | 1011.1 |
| 20260508054004 | 46 | 162 | 0.0 | 1.0 | 0.00 | 0.14 | 0.09 | 97 | 1011.1 |
| 20260508053504 | 46 | 134 | 0.0 | 1.0 | 0.00 | 0.14 | 0.09 | 97 | 1011.2 |
| 20260508053005 | 46 | 139 | 0.0 | 1.0 | 0.01 | 0.14 | 0.09 | 97 | 1011.3 |
| 20260508052504 | 46 | 137 | 0.0 | 1.0 | 0.01 | 0.14 | 0.09 | 97 | 1011.2 |
| 20260508052004 | 46 | 122 | 0.0 | 2.0 | 0.01 | 0.14 | 0.09 | 97 | 1011.2 |
| 20260508051505 | 46 | 141 | 0.0 | 2.0 | 0.01 | 0.14 | 0.09 | 97 | 1011.2 |
| 20260508050004 | 46 | 132 | 0.0 | 1.0 | 0.01 | 0.14 | 0.09 | 97 | 1011.3 |
| 20260508045504 | 46 | 117 | 0.0 | 1.0 | 0.01 | 0.14 | 0.09 | 97 | 1011.3 |
| 20260508045004 | 46 | 117 | 0.0 | 1.0 | 0.01 | 0.14 | 0.09 | 97 | 1011.2 |
| 20260508044004 | 46 | 131 | 0.0 | 1.0 | 0.01 | 0.14 | 0.09 | 97 | 1011.2 |
| 20260508043004 | 46 | 122 | 0.0 | 0.0 | 0.00 | 0.13 | 0.08 | 97 | 1011.4 |
| 20260508042504 | 47 | 134 | 0.0 | 1.0 | 0.00 | 0.13 | 0.08 | 97 | 1011.2 |
| 20260508041504 | 47 | 148 | 0.0 | 2.0 | 0.00 | 0.13 | 0.08 | 97 | 1011.2 |
| 20260508041004 | 47 | 129 | 0.0 | 1.0 | 0.00 | 0.13 | 0.08 | 97 | 1011.2 |
| 20260508040505 | 47 | 132 | 0.0 | 1.0 | 0.00 | 0.13 | 0.08 | 97 | 1011.0 |
| 20260508040004 | 47 | 104 | 0.0 | 1.0 | 0.00 | 0.13 | 0.08 | 97 | 1010.9 |
| 20260508035503 | 47 | 131 | 0.0 | 1.0 | 0.00 | 0.13 | 0.08 | 97 | 1010.9 |
| 20260508035005 | 47 | 122 | 0.0 | 1.0 | 0.00 | 0.13 | 0.08 | 97 | 1010.9 |
| 20260508034503 | 47 | 127 | 0.0 | 1.0 | 0.00 | 0.13 | 0.08 | 97 | 1010.9 |
| 20260508033504 | 47 | 133 | 0.0 | 1.0 | 0.00 | 0.13 | 0.08 | 97 | 1010.7 |
| 20260508033004 | 47 | 127 | 0.0 | 0.0 | 0.00 | 0.13 | 0.08 | 97 | 1010.7 |
| 20260508032504 | 47 | 148 | 0.0 | 0.0 | 0.00 | 0.13 | 0.08 | 97 | 1010.8 |
| 20260508032004 | 48 | 153 | 0.0 | 0.0 | 0.00 | 0.13 | 0.08 | 97 | 1010.8 |
| 20260508031505 | 48 | 154 | 0.0 | 0.0 | 0.00 | 0.13 | 0.08 | 97 | 1010.9 |
| 20260508030005 | 48 | 162 | 0.0 | 0.0 | 0.00 | 0.13 | 0.08 | 97 | 1011.0 |
| 20260508025505 | 48 | 162 | 0.0 | 1.0 | 0.00 | 0.13 | 0.08 | 97 | 1011.0 |
| 20260508025004 | 48 | 162 | 0.0 | 1.0 | 0.00 | 0.13 | 0.08 | 97 | 1010.9 |
| 20260508024504 | 48 | 133 | 0.0 | 1.0 | 0.00 | 0.13 | 0.08 | 97 | 1010.9 |
| 20260508023504 | 49 | 128 | 0.0 | 0.0 | 0.00 | 0.13 | 0.08 | 97 | 1011.0 |
| 20260508023004 | 49 | 127 | 0.0 | 0.0 | 0.00 | 0.13 | 0.08 | 97 | 1011.0 |
| 20260508022504 | 49 | 127 | 0.0 | 0.0 | 0.00 | 0.13 | 0.08 | 97 | 1011.0 |
| 20260508022005 | 49 | 127 | 0.0 | 0.0 | 0.00 | 0.13 | 0.08 | 97 | 1011.0 |
| 20260508021505 | 49 | 127 | 0.0 | 1.0 | 0.00 | 0.13 | 0.08 | 96 | 1011.0 |
| 20260508021004 | 49 | 127 | 0.0 | 1.0 | 0.00 | 0.13 | 0.08 | 97 | 1010.9 |
| 20260508020504 | 49 | 134 | 0.0 | 0.0 | 0.00 | 0.13 | 0.08 | 97 | 1010.7 |
| 20260508020004 | 49 | 134 | 0.0 | 0.0 | 0.00 | 0.13 | 0.08 | 96 | 1010.6 |
| 20260508015504 | 49 | 134 | 0.0 | 0.0 | 0.00 | 0.13 | 0.08 | 96 | 1010.6 |
| 20260508014504 | 50 | 134 | 0.0 | 0.0 | 0.00 | 0.13 | 0.08 | 96 | 1010.5 |
| 20260508014005 | 50 | 134 | 0.0 | 1.0 | 0.00 | 0.13 | 0.08 | 96 | 1010.5 |
| 20260508013504 | 50 | 134 | 0.0 | 1.0 | 0.00 | 0.13 | 0.08 | 96 | 1010.7 |
| 20260508013004 | 50 | 134 | 0.0 | 1.0 | 0.00 | 0.13 | 0.08 | 96 | 1010.6 |
| 20260508012504 | 50 | 134 | 0.0 | 0.0 | 0.00 | 0.13 | 0.08 | 96 | 1010.5 |
| 20260508012005 | 50 | 134 | 0.0 | 1.0 | 0.00 | 0.13 | 0.08 | 96 | 1010.5 |
| 20260508010504 | 51 | 128 | 0.0 | 1.0 | 0.00 | 0.13 | 0.08 | 96 | 1010.4 |